Regional Weather Roundup
Issued by NWS

Home | Current Version | Previous Version | Text Only | Print | Product List | Glossary Off
Versions: 1 2 3 4 5 6 7 8 9 10 11 12 13 14 15 16 17 18 19 20 21 22 23 24 25 26 27 28 29 30 31 32 33 34 35 36 37 38 39 40 41 42 43 44 45 46 47 48 49 50

000
ASUS43 KOAX 160702
RWRNE

WEATHER ROUNDUP FOR NEBRASKA
NATIONAL WEATHER SERVICE OMAHA NE
200 AM CDT TUE SEP 16 2014

NOTES: SATELLITE DATA IS BEING USED TO AUGMENT CLOUD COVER ABOVE
       12000 FEET.
       "FAIR" INDICATES FEW OR NO CLOUDS BELOW 12,000 FEET WITH NO
       SIGNIFICANT WEATHER AND/OR OBSTRUCTIONS TO VISIBILITY.

  * THESE STATIONS DO NOT REPORT WEATHER SUCH AS RAIN...SNOW OR FOG.

NEZ001>004-019>022-054>056-160800-
NEBRASKA PANHANDLE

CITY           SKY/WX    TMP DP  RH WIND       PRES   REMARKS
SCOTTSBLUFF    PTCLDY    53  49  86 E10       30.14F
ALLIANCE       PTCLDY    52  47  83 S12       30.15F
CHADRON        CLEAR     58  47  66 S7        30.08S
KIMBALL        CLEAR     50  50  97 S9        30.17F
SIDNEY         PTCLDY    55  50  83 S10       30.19F
$$

NEZ057>060-069>072-079>082-160800-
SOUTHWEST NEBRASKA

CITY           SKY/WX    TMP DP  RH WIND       PRES   REMARKS
NORTH PLATTE   CLEAR     49  42  77 S7        30.23S
IMPERIAL       CLEAR     50  43  77 S9        30.23F
LEXINGTON        N/A     47  44  87 SE7       30.25S FOG
MCCOOK         CLEAR     50  43  77 SE8       30.25F
OGALLALA       CLEAR     52  46  77 S6        30.21F
$$

NEZ005>010-023>029-035>040-094-160800-
NORTH CENTRAL NEBRASKA

CITY           SKY/WX    TMP DP  RH WIND       PRES   REMARKS
VALENTINE      CLEAR     51  41  68 S8        30.17S
AINSWORTH      CLEAR     48  40  74 S13       30.19S
BROKEN BOW     CLEAR     39  37  92 CALM      30.24S
O`NEILL        CLEAR     45  41  88 S6        30.23F
ORD            CLEAR     41  39  93 CALM      30.24S
THEDFORD       CLEAR     50  43  75 S6        30.21S
$$

NEZ041-046>049-061>064-073>077-083>087-160800-
SOUTH CENTRAL NEBRASKA

CITY           SKY/WX    TMP DP  RH WIND       PRES   REMARKS
GRAND ISLAND   CLEAR     47  43  86 S6        30.27R
AURORA         CLEAR     46  42  88 S6        30.27R
HASTINGS       CLEAR     48  42  80 SE7       30.26S
HEBRON         CLEAR     42  40  92 CALM      30.28R
HOLDREGE       CLEAR     46  42  86 CALM      30.25F
KEARNEY *      CLEAR     45  41  87 SE6       30.26S
$$

NEZ011>018-030>034-042>045-160800-
NORTHEAST NEBRASKA

CITY           SKY/WX    TMP DP  RH WIND       PRES   REMARKS
NORFOLK        CLEAR     42  40  92 CALM      30.26S
ALBION         CLEAR     39  37  93 CALM      30.27R
BLAIR          CLEAR     49  44  83 CALM      30.27R
COLUMBUS *       N/A     39  37  93 CALM      30.28R VSB 3/4
FREMONT        CLEAR     46  45  94 CALM      30.28R
TEKAMAH        CLEAR     43  40  89 CALM      30.27S
WAYNE          CLEAR     38  37  97 S3        30.27R
$$

NEZ050>053-065>068-078-088>093-160800-
SOUTHEAST NEBRASKA

CITY           SKY/WX    TMP DP  RH WIND       PRES   REMARKS
LINCOLN        CLEAR     43  41  93 CALM      30.29R
OMAHA EPPLEY   PTCLDY    48  46  93 CALM      30.28R FOG
BEATRICE       CLEAR     42  41  95 CALM      30.28S
FALLS CITY     CLEAR     46  44  93 W3        30.27R
NEBRASKA CITY  CLEAR     50  41  70 CALM      30.28R
PLATTSMOUTH    CLEAR     47  43  85 CALM      30.28R
$$

NEZ044-045-051>053-067-160800-
OMAHA AREA

CITY           SKY/WX    TMP DP  RH WIND       PRES   REMARKS
OMAHA EPPLEY   PTCLDY    48  46  93 CALM      30.28R FOG
BLAIR          CLEAR     49  44  83 CALM      30.27R
FREMONT        CLEAR     46  45  94 CALM      30.28R
MILLARD        CLEAR     46  45  96 CALM      30.28R FOG
OFFUTT AFB     CLEAR     42  42 100 CALM      30.27S
PLATTSMOUTH    CLEAR     47  43  85 CALM      30.28R
WAHOO          FAIR      43  41  91 CALM      30.27S
$$



USA.gov is the U.S. government's official web portal to all federal, state and local government web resources and services.